Regional Weather Roundup
Issued by NWS Cleveland, OH

Home | Current Version | Previous Version | Text Only | Print | Product List | Glossary Off
Versions: 1 2 3 4 5 6 7 8 9 10 11 12 13 14 15 16 17 18 19 20 21 22 23 24 25 26 27 28 29 30 31 32 33 34 35 36 37 38 39 40 41 42 43 44 45 46 47 48 49 50

000
ASUS41 KCLE 180412
RWRCLE
OHIO REGIONAL WEATHER ROUNDUP
NATIONAL WEATHER SERVICE WILMINGTON, OH
1200 AM EDT WED OCT 18 2017

NOTE: "FAIR" INDICATES FEW OR NO CLOUDS BELOW 12,000 FEET WITH NO
SIGNIFICANT WEATHER AND/OR OBSTRUCTIONS TO VISIBILITY.

OHZ001>008-015>018-024>027-034-035-043-044-180500-
   NORTHWEST OHIO

CITY           SKY/WX    TMP DP  RH WIND       PRES   REMARKS
DEFIANCE       FAIR      50  39  66 SW5       30.23S
FINDLAY        FAIR      48  39  71 S8        30.25R
TOLEDO EXPRESS FAIR      49  44  83 S3        30.23S
TOLEDO EXEC    FAIR      51  41  68 SW6       30.24S
LIMA           FAIR      48  40  73 S7        30.26R
$$

OHZ009>014-019>023-028>033-038-089-180500-
   NORTHEAST OHIO

CITY           SKY/WX    TMP DP  RH WIND       PRES   REMARKS
CLE-HOPKINS    FAIR      57  38  48 SW10      30.27R
CLE-LAKEFRONT  FAIR      59  37  44 SW15      30.24R
CUY CO. ARPT   NOT AVBL
LORAIN-ELYRIA  FAIR      46  36  68 S5        30.26R
ASHTABULA      FAIR      51  40  65 S3        30.26R
AKRON-CANTON   FAIR      49  38  65 SW7       30.28R
WOOSTER        FAIR      40  38  93 CALM      30.28S
MANSFIELD      FAIR      49  38  65 SW5       30.27R
YOUNGSTOWN     FAIR      51  39  63 SW7       30.27R
$$

OHZ042-051>053-060>062-070>072-077>081-180500-
  SOUTHWEST OHIO

CITY           SKY/WX    TMP DP  RH WIND       PRES   REMARKS
CINC-COVINGTON FAIR      48  42  80 S7        30.28S
CINC-LUNKEN    FAIR      43  43 100 CALM      30.30S
HAMILTON       FAIR      41  40  96 CALM      30.29S
DAYTON         FAIR      52  41  66 S6        30.28S
WRIGHT-PAT AFB FAIR      48  40  73 SE5       30.27S
DAYTON GENERAL FAIR      49  40  71 S5        30.27S
WILMINGTON     FAIR      46  41  82 CALM      30.29R
$$

OHZ036-037-039>041-045>050-054>059-063>069-073>076-082>088-180500-
  CENTRAL AND SOUTHEAST OHIO

CITY           SKY/WX    TMP DP  RH WIND       PRES   REMARKS
COLUMBUS       FAIR      50  42  74 CALM      30.29R
OSU AIRPORT    FAIR      50  41  71 S3        30.28S
BOLTON FIELD   FAIR      44  40  85 SW6       30.29S
RICKENBACK AFB FAIR      47  40  77 S5        30.29R
NEWARK         FAIR      44  40  85 CALM      30.29R
MARION         FAIR      49  38  65 SW8       30.28R
LANCASTER      FAIR      41  40  96 CALM      30.30R
ZANESVILLE     FAIR      45  41  86 CALM      30.30R
NEW PHILLY     FAIR      45  42  89 SE3       30.30S
$$




USA.gov is the U.S. government's official web portal to all federal, state and local government web resources and services.